Dewpoint
50 48 47 45 44 43 43 44 43 42 41 39 39 39 38 37 37 35 34 32 32 32
52 48 46 44 43 43 44 41 41 40 37 37 37 37 37 37 36 35 34 33 33 33
50 49 45 43 43 42 41 40 38 38 38 38 39 39 38 38 37 35 36 36 34 33
47 45 44 43 42 40 39 39 39 38 38 38 38 39 38 38 37 36 36 36 35 33
44 45 43 42 41 40 39 39 38 37 37 37 38 38 38 37 37 35 34 34 32 31
41 41 42 41 40 39 38 38 37 37 36 36 36 36 36 35 34 33 33 32 32 30
39 39 38 39 37 37 37 36 35 35 35 35 35 35 35 35 32 31 30 29 28 26
38 37 37 36 36 35 35 35 34 33 34 35 34 32 30 29 28 26 26 25 22 23
37 36 36 35 35 34 34 34 33 33 33 33 34 33 32 28 27 23 21 20 23 23
37 35 35 35 34 33 33 33 32 32 31 30 32 34 33 30 26 23 21 21 23 19
35 34 34 34 34 33 33 32 31 29 29 30 31 32 32 30 25 25 22 22 23 21
35 34 34 33 33 33 32 31 28 29 29 28 28 24 25 25 22 22 24 24 23 19
35 34 33 33 32 32 32 30 30 28 28 28 27 23 27 23 22 23 23 23 21 19
34 34 34 33 32 32 32 29 28 27 26 26 27 24 27 26 25 23 22 22 21 20
Lifted_Index
-1 -1 -0 -0 1 2 3 4 5 6 7 8 9 9 10 10 10 10 9 9 10 10
0 0 0 1 1 2 3 3 4 6 7 8 9 10 10 11 11 11 11 11 11 11
0 0 1 1 2 2 2 3 4 5 7 8 9 10 11 12 13 13 12 12 12 11
-0 0 1 1 2 2 2 3 4 5 7 8 9 11 12 13 13 13 12 11 11 10
0 1 1 1 2 3 3 3 4 6 7 8 9 10 12 12 12 11 11 10 11 11
1 1 1 2 2 3 4 4 5 6 7 8 9 10 11 11 11 11 11 12 13 14
2 2 2 2 3 4 5 6 6 7 8 8 9 10 10 11 11 12 13 14 15 15
3 3 3 3 4 5 6 7 7 8 8 9 9 10 10 12 13 14 14 15 15 15
4 4 4 4 5 6 7 7 8 8 9 9 10 10 12 13 14 14 14 15 16 17
3 4 5 5 6 6 7 7 8 8 9 9 10 11 13 14 15 15 16 17 17 18
3 4 4 5 6 6 6 7 8 9 10 10 11 13 14 16 16 17 18 18 19 19
2 3 4 4 5 6 6 7 8 9 10 11 12 14 15 17 17 17 18 18 18 19
2 2 3 3 4 5 6 7 8 10 11 12 12 14 16 17 17 16 17 17 18 18
2 2 3 3 4 5 6 7 9 10 11 11 12 13 15 16 16 16 16 17 17 18